Preview of NWS' New Version of Forecast
This preview is not operational and should not be used for support decisions.

Regional Weather Roundup (RWR)

Issued by National Weather Service (NWS)

                            
000
ASUS46 KPQR 210310
RWROR 

OREGON REGIONAL WEATHER ROUNDUP
NATIONAL WEATHER SERVICE PORTLAND OR
800 PM PDT TUE AUG 20 2019

NOTE: "FAIR" INDICATES FEW OR NO CLOUDS BELOW 12,000 FEET WITH
NO SIGNIFICANT WEATHER AND/OR OBSTRUCTIONS TO VISIBILITY.

ORZ001>013-210400-
NORTHWEST OREGON

  
CITY           SKY/WX    TMP DP  RH WIND       PRES   REMARKS
ASTORIA        CLOUDY    65  56  72 S8        29.98R                  
TILLAMOOK      MOCLDY    66  54  63 SW5       30.02S                  
NEWPORT        MOCLDY    64  57  77 S10       30.05S                  
FLORENCE       FAIR      64  54  68 S9        30.04R                  
PORTLAND       MOCLDY    79  57  46 NW9       29.95R                  
VANCOUVER WA   CLOUDY    76  59  55 N7        29.95R                  
SCAPPOOSE      CLOUDY    72  59  63 N9        29.94R                  
HILLSBORO      CLOUDY    72  52  49 W3        29.96R                  
AURORA         MOCLDY    72  54  53 S8        29.98R                  
MCMINNVILLE    MOCLDY    69  52  54 SW10      29.97R                  
SALEM          MOCLDY    69  52  54 SW8       29.99R                  
CORVALLIS      MOCLDY    68  56  65 W8        30.01R                  
EUGENE         MOCLDY    67  53  61 SW10      30.03R                  
CRESWELL       CLEAR     70  55  60 NW10      30.01R                  
$$

ORZ021-028-210400-
SOUTHWEST OREGON

  
CITY           SKY/WX    TMP DP  RH WIND       PRES   REMARKS
NORTH BEND     MOCLDY    66  54  65 SW7       30.06R                  
BROOKINGS      CLEAR     61  56  83 CALM      30.09R                  
ROSEBURG       CLOUDY    73  55  53 NW7       30.01R                  
SEXTON SUMMIT  CLOUDY    65  47  52 NW5       30.11R                  
GRANTS PASS    FAIR      81  45  28 CALM      30.01R                  
MEDFORD        CLOUDY    82  46  28 NW13G18   29.95R                  
$$

ORZ014>016-041-210400-
COLUMBIA GORGE

  
CITY           SKY/WX    TMP DP  RH WIND       PRES   REMARKS
TROUTDALE      MOCLDY    79  56  45 SW10      29.94R                  
HOOD RIVER     CLOUDY    77  54  44 CALM      29.92R                  
THE DALLES     CLOUDY    82  55  39 W21G35    29.87R                  
$$

ORZ029>031-041-044-049-050-061>064-502-503-505>511-210400-
EASTERN OREGON

  
CITY           SKY/WX    TMP DP  RH WIND       PRES   REMARKS
MADRAS         CLOUDY    77  54  44 NW14G21   29.98R                  
REDMOND        CLOUDY    78  53  41 NW12      29.99R                  
BEND           CLOUDY    77  52  41 NW10      30.00R                  
PRINEVILLE     CLOUDY    77  54  44 W14       29.99R                  
KLAMATH FALLS  CLOUDY    77  47  34 NW12      30.06R                  
LAKEVIEW       MOCLDY    70  34  26 S7        30.10R                  
HERMISTON      MOCLDY    86  53  32 SW6       29.80S                  
PENDLETON      MOCLDY    80  44  27 NW6       29.85S HAZE             
JOHN DAY       CLEAR     83  42  23 CALM      29.97R                  
MEACHAM        PTCLDY    71  46  40 CALM      30.01S                  
LA GRANDE      PTCLDY    82  47  29 W12       29.93R                  
BAKER CITY     PTCLDY    76  52  43 NW7       29.96R                  
BURNS          CLEAR     76  34  21 W6        29.99S                  
ROME             N/A     87  24  10 NW6       29.96R                  
ONTARIO        CLEAR     84  54  35 CALM      29.85R                  
$$